Weather History for KFMM - February, 2013

Change the Weather History Date:

Tuesday, February 12, 2013

  Actual Average (KAKO) Record (KAKO)
Temperature  
Mean Temperature 24 °F 30 °F  
Max Temperature 43 °F 42 °F 75 °F (1962)
Min Temperature 6 °F 19 °F -12 °F (1948)
Degree Days  
Heating Degree Days 40    
Month to date heating degree days  
Cooling Degree Days 0    
Month to date cooling degree days  
Moisture  
Dew Point 7 °F    
Average Humidity 56    
Maximum Humidity 92    
Minimum Humidity 18    
Precipitation  
Precipitation 0.00 in 0.02 in 0.42 in (1951)
Month to date precipitation 0.17  
Year to date precipitation 0.47  
Sea Level Pressure  
Sea Level Pressure 30.01 in    
Wind  
Wind Speed 7 mph (NW)    
Max Wind Speed 16 mph    
Max Gust Speed 24 mph    
Visibility 10 miles    
Events      
T = Trace of Precipitation, MM = Missing Value Source: NWS Daily Summary

Daily Weather History Graph

Daily Weather History Graph

Search for Another Location

Airport or City:

Trip Planner

Search our weather history database for the weather conditions in past years. The results will help you decide how hot, cold, wet, or windy it might be!

Date:

Astronomy

Feb. 12, 2013 Rise Set
Actual Time 6:51 AM MST 5:27 PM MST
Civil Twilight 6:23 AM MST 5:55 PM MST
Nautical Twilight 5:51 AM MST 6:27 PM MST
Astronomical Twilight 5:20 AM MST 6:59 PM MST
Moon 7:49 AM MST (2/12) 8:31 PM MST (2/12)
Length of Visible Light 11h 31m
Length of Day
10h 35m
Waxing Crescent, 8% of the Moon is Illuminated
Feb 12
Waxing Crescent
Feb 17
First Quarter
Feb 25
Full
Mar 4
Last Quarter
Mar 11
New

Hourly Weather History & Observations

Time (MST) Temp. Windchill Dew Point Humidity Pressure Visibility Wind Dir Wind Speed Gust Speed Precip Events Conditions
12:15 AM 15.3 °F 6.6 °F 10.9 °F 83% 30.01 in 10.0 mi NW 5.8 mph - N/A   Clear
12:35 AM 15.8 °F 7.2 °F 9.9 °F 77% 30.01 in 10.0 mi West 5.8 mph - N/A   Clear
12:55 AM 12.2 °F 6.1 °F 7.0 °F 80% 30.01 in 10.0 mi WSW 3.5 mph - N/A   Clear
1:15 AM 11.8 °F 1.3 °F 9.0 °F 88% 30.01 in 10.0 mi WNW 6.9 mph - N/A   Clear
1:35 AM 15.8 °F 8.6 °F 11.3 °F 82% 30.02 in 10.0 mi West 4.6 mph - N/A   Clear
1:55 AM 12.4 °F 6.3 °F 7.3 °F 80% 30.02 in 10.0 mi North 3.5 mph - N/A   Clear
2:15 AM 11.8 °F 5.7 °F 8.8 °F 88% 30.02 in 10.0 mi SW 3.5 mph - N/A   Clear
2:35 AM 9.5 °F -0.3 °F 7.3 °F 91% 30.02 in 10.0 mi WSW 5.8 mph - N/A   Clear
2:55 AM 9.1 °F 2.6 °F 7.2 °F 92% 30.02 in 10.0 mi West 3.5 mph - N/A   Clear
3:15 AM 7.5 °F - 5.2 °F 90% 30.02 in 10.0 mi Calm Calm - N/A   Clear
3:35 AM 6.1 °F -5.6 °F 3.2 °F 88% 30.02 in 10.0 mi WSW 6.9 mph - N/A   Clear
3:55 AM 8.2 °F -1.8 °F 6.1 °F 91% 30.03 in 10.0 mi West 5.8 mph - N/A   Clear
4:15 AM 9.1 °F -1.9 °F 6.6 °F 89% 30.03 in 10.0 mi West 6.9 mph - N/A   Clear
4:35 AM 9.5 °F -1.5 °F 7.3 °F 91% 30.03 in 10.0 mi West 6.9 mph - N/A   Clear
4:55 AM 9.1 °F -3.0 °F 6.3 °F 88% 30.02 in 10.0 mi West 8.1 mph - N/A   Clear
5:15 AM 8.4 °F -6.5 °F 5.9 °F 89% 30.03 in 10.0 mi West 11.5 mph - N/A   Clear
5:35 AM 8.2 °F -4.1 °F 5.4 °F 88% 30.03 in 10.0 mi West 8.1 mph - N/A   Clear
5:55 AM 7.7 °F -4.8 °F 4.8 °F 88% 30.03 in 10.0 mi WNW 8.1 mph - N/A   Clear
6:15 AM 7.9 °F -2.2 °F 4.3 °F 85% 30.03 in 10.0 mi WSW 5.8 mph - N/A   Clear
6:35 AM 8.2 °F -4.1 °F 4.8 °F 86% 30.03 in 10.0 mi West 8.1 mph - N/A   Clear
6:55 AM 8.2 °F -3.0 °F 3.9 °F 83% 30.02 in 10.0 mi West 6.9 mph - N/A   Clear
7:15 AM 8.6 °F -2.6 °F 4.5 °F 83% 30.03 in 10.0 mi West 6.9 mph - N/A   Clear
7:35 AM 11.8 °F -0.7 °F 7.3 °F 82% 30.03 in 10.0 mi West 9.2 mph - N/A   Clear
7:55 AM 14.5 °F 3.6 °F 10.4 °F 84% 30.03 in 10.0 mi West 8.1 mph - N/A   Clear
8:15 AM 16.9 °F 4.8 °F 11.1 °F 78% 30.03 in 10.0 mi West 10.4 mph - N/A   Clear
8:35 AM 19.0 °F 7.5 °F 10.2 °F 69% 30.03 in 10.0 mi West 10.4 mph - N/A   Clear
8:55 AM 21.4 °F 10.4 °F 12.7 °F 69% 30.03 in 10.0 mi West 10.4 mph - N/A   Clear
9:15 AM 24.6 °F 15.8 °F 10.4 °F 55% 30.04 in 10.0 mi WNW 8.1 mph - N/A   Clear
9:35 AM 27.5 °F 18.6 °F 9.3 °F 46% 30.04 in 10.0 mi West 9.2 mph - N/A   Clear
9:55 AM 29.8 °F 20.9 °F 10.4 °F 44% 30.04 in 10.0 mi WNW 10.4 mph - N/A   Clear
10:15 AM 31.6 °F 24.4 °F 10.9 °F 42% 30.04 in 10.0 mi WSW 8.1 mph - N/A   Clear
10:35 AM 32.7 °F 25.7 °F 11.7 °F 42% 30.04 in 10.0 mi WSW 8.1 mph - N/A   Clear
10:55 AM 34.9 °F 29.0 °F 10.4 °F 36% 30.04 in 10.0 mi West 6.9 mph - N/A   Clear
11:15 AM 36.5 °F 31.0 °F 7.0 °F 29% 30.04 in 10.0 mi West 6.9 mph - N/A   Clear
11:35 AM 37.8 °F 31.3 °F 6.4 °F 27% 30.02 in 10.0 mi SW 9.2 mph - N/A   Clear
11:55 AM 41.9 °F 35.0 °F 4.6 °F 21% 30.02 in 10.0 mi NNW 12.7 mph 16.1 mph N/A   Clear
12:15 PM 41.7 °F 33.7 °F 4.6 °F 22% 30.01 in 10.0 mi NNW 16.1 mph 21.9 mph N/A   Clear
12:35 PM 42.3 °F 35.9 °F 5.7 °F 22% 30.01 in 10.0 mi North 11.5 mph 21.9 mph N/A   Clear
12:55 PM 42.1 °F 36.1 °F 2.8 °F 20% 30.00 in 10.0 mi NW 10.4 mph 24.2 mph N/A   Clear
1:15 PM 43.0 °F 37.7 °F 4.6 °F 21% 30.00 in 10.0 mi NNW 9.2 mph - N/A   Clear
1:35 PM 43.2 °F 38.4 °F 3.2 °F 19% 29.99 in 10.0 mi NNW 8.1 mph 17.3 mph N/A   Scattered Clouds
1:55 PM 43.3 °F 36.8 °F 2.3 °F 18% 29.98 in 10.0 mi NNW 12.7 mph 17.3 mph N/A   Scattered Clouds
2:15 PM 43.9 °F 37.9 °F 3.2 °F 19% 29.98 in 10.0 mi NNW 11.5 mph 19.6 mph N/A   Scattered Clouds
2:35 PM 43.7 °F 39.1 °F 3.7 °F 19% 29.98 in 10.0 mi North 8.1 mph - N/A   Clear
2:55 PM 43.9 °F 37.5 °F 4.5 °F 20% 29.98 in 10.0 mi North 12.7 mph - N/A   Clear
3:15 PM 43.7 °F 37.7 °F 5.5 °F 21% 29.98 in 10.0 mi NNW 11.5 mph 16.1 mph N/A   Clear
3:35 PM 43.5 °F 37.5 °F 5.9 °F 21% 29.98 in 10.0 mi NNE 11.5 mph - N/A   Clear
3:55 PM 43.0 °F 38.2 °F 6.1 °F 22% 29.99 in 10.0 mi North 8.1 mph - N/A   Clear
4:15 PM 42.1 °F 36.1 °F 6.3 °F 23% 29.99 in 10.0 mi North 10.4 mph - N/A   Clear
4:35 PM 41.0 °F 35.8 °F 6.4 °F 24% 29.99 in 10.0 mi North 8.1 mph - N/A   Clear
4:55 PM 38.5 °F 30.7 °F 6.4 °F 26% 29.99 in 10.0 mi North 12.7 mph 16.1 mph N/A   Clear
5:15 PM 35.4 °F 28.4 °F 6.4 °F 30% 30.00 in 10.0 mi North 9.2 mph - N/A   Clear
5:35 PM 31.3 °F 22.1 °F 5.0 °F 33% 30.00 in 10.0 mi North 11.5 mph - N/A   Clear
5:55 PM 28.6 °F 19.9 °F 4.3 °F 36% 30.01 in 10.0 mi North 9.2 mph - N/A   Clear
6:15 PM 27.3 °F - 5.7 °F 40% 30.01 in 10.0 mi North - - N/A   Clear
6:35 PM 26.2 °F 16.4 °F 5.9 °F 42% 30.01 in 10.0 mi North 10.4 mph - N/A   Clear
6:55 PM 26.4 °F 15.5 °F 7.3 °F 45% 30.01 in 10.0 mi North 12.7 mph - N/A   Clear
7:15 PM 26.2 °F 15.2 °F 7.7 °F 46% 30.00 in 10.0 mi North 12.7 mph - N/A   Clear
7:35 PM 25.0 °F 12.6 °F 7.7 °F 48% 30.01 in 10.0 mi North 15.0 mph - N/A   Clear
7:55 PM 24.6 °F 12.7 °F 8.6 °F 51% 30.01 in 10.0 mi North 13.8 mph - N/A   Clear
8:15 PM 24.6 °F 12.7 °F 8.8 °F 51% 30.01 in 10.0 mi North 13.8 mph - N/A   Clear
8:35 PM 25.2 °F 14.4 °F 9.5 °F 52% 30.01 in 10.0 mi North 11.5 mph - N/A   Clear
8:55 PM 22.3 °F 10.8 °F 9.3 °F 58% 30.02 in 10.0 mi North 11.5 mph - N/A   Clear
9:15 PM 22.1 °F 12.8 °F 9.3 °F 58% 30.02 in 10.0 mi NNW 8.1 mph - N/A   Clear
9:35 PM 21.6 °F 15.3 °F 9.3 °F 59% 30.02 in 10.0 mi West 4.6 mph - N/A   Clear
9:55 PM 23.0 °F - 9.3 °F 56% 30.01 in 10.0 mi Calm Calm - N/A   Clear
10:15 PM 21.7 °F 15.5 °F 8.2 °F 56% 30.01 in 10.0 mi SW 4.6 mph - N/A   Clear
10:35 PM 18.5 °F - 8.1 °F 64% 30.01 in 10.0 mi Calm Calm - N/A   Clear
10:55 PM 19.0 °F 11.1 °F 7.3 °F 60% 30.02 in 10.0 mi SSW 5.8 mph - N/A   Clear
11:15 PM 18.0 °F - 7.5 °F 64% 30.02 in 10.0 mi Calm Calm - N/A   Clear
11:35 PM 15.8 °F 7.2 °F 6.3 °F 66% 30.02 in 10.0 mi West 5.8 mph - N/A   Clear
11:55 PM 15.1 °F 5.2 °F 6.6 °F 69% 30.03 in 10.0 mi West 6.9 mph - N/A   Clear